Find Starlink 5759

NORAD ID: 55592 Int'l Des: 2023-020 Owner: SPXS Country: US Constellation: starlink operational
LEOCIRCULAR

Live Position

Loading 3D Globe...

About Starlink 5759

Description loading...

Upcoming Passes

Passes for default location (London). Set your location on the main map for personalized predictions.

Altitude History

Loading altitude history...

Two-Line Element Set

1 55592U 23020Z 26104.50346859 -.00000181 00000-0 29667-5 0 9992
2 55592 43.0024 162.6333 0001570 276.2817 83.7856 15.27576051174391
Epoch: Apr 14, 2026 • Age: 11 hours

Current Status

Altitude 493.7 km
Velocity 7.62 km/s
Sub-Earth Point -39.01°S, 84.39°W
Launch Date Feb 12, 2023
Age 3.1 years
Type internet

Technical Details

Classification Payload
Mass 305.00 kg
Dry Mass 290.00 kg
Total Mass 305.00 kg
Length 0.20 m
Diameter 2.80 m
Span 9.00 m
Shape Box + pan
Manufacturer SPXS
Bus Type Starlink
Phase Status In Orbit
Owner/State SPXS/US

Most Searched